Time,TemperatureF,DewpointF,PressureIn,WindDirection,WindDirectionDegrees,WindSpeedMPH,WindSpeedGustMPH,Humidity,HourlyPrecipIn,Conditions,Clouds,dailyrainin,SolarRadiationWatts/m^2,SoftwareType,DateUTC
2013-09-01 00:00:00,57.0,50.0,30.06,WNW,291,5.0,-999.0,79,-99.99,,,-99.99,0.100000,,2013-09-01 06:00:00,
2013-09-01 00:52:00,57.0,50.0,30.06,WNW,291,5.0,-999.0,79,-99.99,,,-99.99,0.100000,,2013-09-01 06:52:00,
2013-09-01 02:00:00,55.0,51.0,30.07,West,274,7.0,-999.0,86,-99.99,,,-99.99,0.060000,,2013-09-01 08:00:00,
2013-09-01 02:52:00,55.0,51.0,30.07,West,274,7.0,-999.0,86,-99.99,,,-99.99,0.060000,,2013-09-01 08:52:00,
2013-09-01 03:00:00,54.0,52.0,30.08,West,271,7.0,-999.0,90,-99.99,,,-99.99,0.060000,,2013-09-01 09:00:00,
2013-09-01 03:53:00,54.0,52.0,30.08,West,271,7.0,-999.0,90,-99.99,,,-99.99,0.060000,,2013-09-01 09:53:00,
2013-09-01 04:00:00,54.0,52.0,30.08,West,275,6.0,-999.0,92,-99.99,,,-99.99,0.060000,,2013-09-01 10:00:00,
2013-09-01 04:53:00,54.0,52.0,30.08,West,275,6.0,-999.0,92,-99.99,,,-99.99,0.060000,,2013-09-01 10:53:00,
2013-09-01 05:00:00,54.0,52.0,30.08,West,271,7.0,-999.0,93,-99.99,,,-99.99,0.050000,,2013-09-01 11:00:00,
2013-09-01 05:52:00,54.0,52.0,30.08,West,271,7.0,-999.0,93,-99.99,,,-99.99,0.050000,,2013-09-01 11:52:00,
2013-09-01 06:00:00,53.0,52.0,30.08,West,276,6.0,-999.0,96,-99.99,,,-99.99,0.130000,,2013-09-01 12:00:00,
2013-09-01 06:52:00,53.0,52.0,30.08,West,276,6.0,-999.0,96,-99.99,,,-99.99,0.130000,,2013-09-01 12:52:00,
2013-09-01 08:00:00,59.0,56.0,30.10,WNW,289,5.0,-999.0,91,-99.99,,,-99.99,129.000000,,2013-09-01 14:00:00,
2013-09-01 08:52:00,59.0,56.0,30.10,WNW,289,5.0,-999.0,91,-99.99,,,-99.99,129.000000,,2013-09-01 14:52:00,
2013-09-01 09:00:00,63.0,57.0,30.10,NNE,19,2.0,-999.0,79,-99.99,,,-99.99,285.600006,,2013-09-01 15:00:00,
2013-09-01 09:55:00,63.0,57.0,30.10,NNE,19,2.0,-999.0,79,-99.99,,,-99.99,285.600006,,2013-09-01 15:55:00,
2013-09-01 10:00:00,67.0,56.0,30.09,ENE,63,2.0,-999.0,68,-99.99,,,-99.99,412.399994,,2013-09-01 16:00:00,
2013-09-01 10:53:00,67.0,56.0,30.09,ENE,63,2.0,-999.0,68,-99.99,,,-99.99,412.399994,,2013-09-01 16:53:00,
2013-09-01 11:00:00,69.0,54.0,30.08,NW,316,3.0,-999.0,58,-99.99,,,-99.99,481.000000,,2013-09-01 17:00:00,
2013-09-01 11:52:00,69.0,54.0,30.08,NW,316,3.0,-999.0,58,-99.99,,,-99.99,481.000000,,2013-09-01 17:52:00,
2013-09-01 13:00:00,73.0,51.0,30.04,ENE,69,5.0,-999.0,46,-99.99,,,-99.99,642.700012,,2013-09-01 19:00:00,
2013-09-01 13:52:00,73.0,51.0,30.04,ENE,69,5.0,-999.0,46,-99.99,,,-99.99,642.700012,,2013-09-01 19:52:00,
2013-09-01 14:00:00,77.0,49.0,30.03,East,90,6.0,-999.0,38,-99.99,,,-99.99,662.200012,,2013-09-01 20:00:00,
2013-09-01 14:52:00,77.0,49.0,30.03,East,90,6.0,-999.0,38,-99.99,,,-99.99,662.200012,,2013-09-01 20:52:00,
2013-09-01 15:00:00,78.0,49.0,30.01,ESE,104,6.0,-999.0,36,-99.99,,,-99.99,634.700012,,2013-09-01 21:00:00,
2013-09-01 15:55:00,78.0,49.0,30.01,ESE,104,6.0,-999.0,36,-99.99,,,-99.99,634.700012,,2013-09-01 21:55:00,
2013-09-01 16:00:00,78.0,50.0,30.00,SE,141,6.0,-999.0,37,-99.99,,,-99.99,546.299988,,2013-09-01 22:00:00,
2013-09-01 16:53:00,78.0,50.0,30.00,SE,141,6.0,-999.0,37,-99.99,,,-99.99,546.299988,,2013-09-01 22:53:00,
2013-09-01 17:00:00,77.0,49.0,29.99,ESE,117,8.0,-999.0,37,-99.99,,,-99.99,425.100006,,2013-09-01 23:00:00,
2013-09-01 17:53:00,77.0,49.0,29.99,ESE,117,8.0,-999.0,37,-99.99,,,-99.99,425.100006,,2013-09-01 23:53:00,
2013-09-01 22:00:00,63.0,52.0,30.01,ESE,106,2.0,-999.0,67,-99.99,,,-99.99,0.200000,,2013-09-02 04:00:00,
2013-09-01 22:54:00,63.0,52.0,30.01,ESE,106,2.0,-999.0,67,-99.99,,,-99.99,0.200000,,2013-09-02 04:54:00,
2013-09-01 23:00:00,61.0,52.0,30.01,ESE,112,1.0,-999.0,72,-99.99,,,-99.99,0.130000,,2013-09-02 05:00:00,
2013-09-01 23:52:00,61.0,52.0,30.01,ESE,112,1.0,-999.0,72,-99.99,,,-99.99,0.130000,,2013-09-02 05:52:00,